,

(GMT )
Al Udeid

Weather History for KQIR - May, 2013

Change the Weather History Date:

Sunday, May 5, 2013

  Actual Average Record
Temperature  
Mean Temperature 82 °F -  
Max Temperature 93 °F - - ()
Min Temperature 70 °F - - ()
Cooling Degree Days 16    
Growing Degree Days 32 (Base 50)    
Moisture  
Dew Point 63 °F    
Average Humidity 58    
Maximum Humidity 88    
Minimum Humidity 27    
Precipitation  
Precipitation 0.00 in - - ()
Sea Level Pressure  
Sea Level Pressure 29.80 in    
Wind  
Wind Speed 8 mph ()    
Max Wind Speed 16 mph    
Max Gust Speed -    
Visibility 6.2 miles    
Events      
Averages and records for this station are not official NWS values.
T = Trace of Precipitation, MM = Missing Value Source: Averaged Metar Reports

Daily Weather History Graph

Daily Weather History Graph

Search for Another Location

Airport or City:

Trip Planner

Search our weather history database for the weather conditions in past years. The results will help you decide how hot, cold, wet, or windy it might be!

Date:

Astronomy

May. 05, 2013 Rise Set
Actual Time 4:56 AM +03 6:07 PM +03
Civil Twilight 4:31 AM +03 6:31 PM +03
Nautical Twilight 4:02 AM +03 7:00 PM +03
Astronomical Twilight 3:33 AM +03 7:30 PM +03
Moon 1:46 AM +03 (5/5) 2:07 PM +03 (5/5)
Length of Visible Light 13h 59m
Length of Day
13h 11m
Waning Crescent, 21% of the Moon is Illuminated
May 5
Waning Crescent
May 10
New
May 18
First Quarter
May 25
Full
May 31
Last Quarter

Hourly Weather History & Observations

Time (+03) Temp. Heat Index Dew Point Humidity Pressure Visibility Wind Dir Wind Speed Gust Speed Precip Events Conditions
12:55 AM 72.3 °F - 67.3 °F 84% 29.77 in 6.2 mi SW 5.8 mph - N/A   Clear
1:55 AM 71.1 °F - 67.3 °F 88% 29.75 in 6.2 mi WNW 3.5 mph - N/A   Clear
2:55 AM 70.9 °F - 66.6 °F 86% 29.75 in 6.2 mi West 4.6 mph - N/A   Clear
3:55 AM 70.7 °F - 66.0 °F 85% 29.75 in 6.2 mi West 4.6 mph - N/A   Clear
4:55 AM 70.3 °F - 65.3 °F 84% 29.78 in 6.2 mi WSW 9.2 mph - N/A   Clear
5:55 AM 71.4 °F - 67.5 °F 87% 29.82 in 6.2 mi West 12.7 mph - N/A   Partly Cloudy
6:32 AM 73.4 °F - 68.0 °F 83% 29.84 in 6.2 mi WNW 13.8 mph - N/A   Mostly Cloudy
6:55 AM 74.3 °F - 68.9 °F 83% 29.86 in 6.2 mi WNW 16.1 mph - N/A   Mostly Cloudy
7:55 AM 77.5 °F - 68.4 °F 73% 29.86 in 6.2 mi NW 13.8 mph - N/A   Overcast
8:55 AM 80.8 °F 83.3 °F 67.6 °F 64% 29.86 in 6.2 mi NW 15.0 mph - N/A   Overcast
9:55 AM 83.8 °F 85.8 °F 65.7 °F 54% 29.85 in 6.2 mi NNW 16.1 mph - N/A   Overcast
10:55 AM 85.8 °F 87.9 °F 65.7 °F 51% 29.84 in 6.2 mi NNW 12.7 mph - N/A   Overcast
11:55 AM 89.6 °F 89.5 °F 60.6 °F 38% 29.81 in 6.2 mi North 13.8 mph - N/A   Overcast
12:55 PM 91.8 °F 90.0 °F 56.1 °F 30% 29.78 in 6.2 mi North 11.5 mph - N/A   Overcast
1:55 PM 92.7 °F 91.2 °F 57.0 °F 30% 29.76 in 6.2 mi North 12.7 mph - N/A   Mostly Cloudy
2:55 PM 93.4 °F 91.3 °F 54.7 °F 27% 29.75 in 6.2 mi North 10.4 mph - N/A   Mostly Cloudy
3:55 PM 92.3 °F 91.3 °F 58.6 °F 32% 29.75 in 6.2 mi ENE 11.5 mph - N/A   Scattered Clouds
4:55 PM 90.7 °F 89.0 °F 56.1 °F 31% 29.76 in 6.2 mi NE 11.5 mph - N/A   Partly Cloudy
5:55 PM 87.6 °F 85.9 °F 54.9 °F 33% 29.78 in 6.2 mi NNE 12.7 mph - N/A   Clear
6:55 PM 85.3 °F 83.8 °F 54.7 °F 35% 29.81 in 6.2 mi North 11.5 mph - N/A   Clear
7:55 PM 82.2 °F 82.3 °F 59.0 °F 45% 29.83 in 6.2 mi North 11.5 mph - N/A   Clear
8:55 PM 79.2 °F - 61.5 °F 55% 29.83 in 6.2 mi North 8.1 mph - N/A   Clear
9:55 PM 80.1 °F 80.9 °F 59.9 °F 50% 29.83 in 6.2 mi North 6.9 mph - N/A   Clear
10:55 PM 79.5 °F - 60.8 °F 53% 29.81 in 6.2 mi North 6.9 mph - N/A   Clear
11:55 PM 76.5 °F - 66.7 °F 72% 29.80 in 6.2 mi Calm Calm - N/A   Clear